Location: St. Louis
(38.6270°N, 90.1994°W)
Time: 20:47:06
(UTC-06:00)

Vanguard 2 - Pass Details

Date: 01 December 2021
Orbit: 553 x 2936 km, 32.9° (Epoch: 21 January)

Event Time Altitude Azimuth Distance (km) Brightness Sun altitude
Rises 13:11:22 0° 225° (SW) 2,866 11.5 26.5°
Reaches altitude 10° 13:13:37 10° 213° (SSW) 2,100 11.5 26.4°
Maximum altitude 13:17:44 29° 153° (SSE) 1,494 9.8 26.1°
Drops below altitude 10° 13:23:32 10° 96° (E) 3,017 10.5 25.6°
Sets 13:27:26 0° 87° (E) 4,403 11.1 25.3°
